Colorado Springs, CO

11:21 PM MST on February 25, 2017 (GMT -0700)
Usaf Academy

Weather History for KAFF - December, 2013

Change the Weather History Date:

Sunday, December 15, 2013

  Actual Average Record
Temperature  
Mean Temperature 36 °F -  
Max Temperature 51 °F 40 °F 62 °F (2006)
Min Temperature 20 °F 17 °F -6 °F (2008)
Degree Days  
Heating Degree Days 30    
Moisture  
Dew Point 11 °F    
Average Humidity 32    
Maximum Humidity 66    
Minimum Humidity 14    
Precipitation  
Precipitation 0.00 in - - ()
Sea Level Pressure  
Sea Level Pressure 30.18 in    
Wind  
Wind Speed 9 mph (NW)    
Max Wind Speed 24 mph    
Max Gust Speed 38 mph    
Visibility 10 miles    
Events      
Averages and records for this station are not official NWS values.
T = Trace of Precipitation, MM = Missing Value Source: NWS Daily Summary

Daily Weather History Graph

Daily Weather History Graph

Search for Another Location

Airport or City:

Trip Planner

Search our weather history database for the weather conditions in past years. The results will help you decide how hot, cold, wet, or windy it might be!

Date:

Astronomy

Dec. 15, 2013 Rise Set
Actual Time 7:11 AM MST 4:38 PM MST
Civil Twilight 6:41 AM MST 5:08 PM MST
Nautical Twilight 6:07 AM MST 5:41 PM MST
Astronomical Twilight 5:35 AM MST 6:14 PM MST
Moon 3:43 PM MST (12/15) 5:30 AM MST (12/15)
Length of Visible Light 10h 27m
Length of Day
9h 27m
Waxing Gibbous, 98% of the Moon is Illuminated
Dec 15
Waxing Gibbous
Dec 17
Full
Dec 25
Last Quarter
Jan 1
New
Jan 7
First Quarter

Hourly Weather History & Observations

Time (MST) Temp. Windchill Dew Point Humidity Pressure Visibility Wind Dir Wind Speed Gust Speed Precip Events Conditions
12:58 AM 20.3 °F 13.8 °F 10.4 °F 66% 30.24 in 10.0 mi ENE 4.6 mph - N/A   Clear
1:52 AM 28.4 °F 18.0 °F 12.2 °F 51% 30.14 in 10.0 mi West 12.7 mph 18.4 mph N/A   Clear
1:58 AM 31.8 °F 24.6 °F 12.4 °F 45% 30.17 in 10.0 mi North 8.1 mph 23.0 mph N/A   Clear
2:58 AM 36.5 °F 33.9 °F 15.6 °F 43% 30.16 in 10.0 mi Variable 3.5 mph - N/A   Clear
3:58 AM 32.7 °F 25.0 °F 14.9 °F 48% 30.19 in 10.0 mi North 9.2 mph - N/A   Clear
4:58 AM 28.0 °F 21.7 °F 13.6 °F 55% 30.22 in 10.0 mi North 5.8 mph - N/A   Clear
5:58 AM 27.5 °F 16.8 °F 13.6 °F 56% 30.25 in 10.0 mi North 12.7 mph - N/A   Clear
6:58 AM 27.1 °F 18.9 °F 12.2 °F 53% 30.32 in 10.0 mi ENE 8.1 mph - N/A   Clear
7:58 AM 24.8 °F 15.3 °F 12.4 °F 59% 30.35 in 10.0 mi ENE 9.2 mph - N/A   Clear
8:58 AM 33.4 °F - 14.4 °F 46% 30.33 in 10.0 mi Variable 1.2 mph - N/A   Clear
9:58 AM 41.7 °F 36.1 °F 11.5 °F 29% 30.30 in 10.0 mi SSE 9.2 mph - N/A   Clear
10:58 AM 43.9 °F 40.5 °F 12.0 °F 27% 30.27 in 10.0 mi Variable 5.8 mph - N/A   Clear
11:58 AM 46.4 °F 45.2 °F 12.6 °F 26% 30.20 in 10.0 mi South 3.5 mph - N/A   Clear
12:58 PM 48.9 °F - 12.7 °F 23% 30.18 in 10.0 mi South 4.6 mph - N/A   Clear
1:58 PM 49.5 °F - 14.4 °F 25% 30.12 in 10.0 mi SE 2.3 mph - N/A   Clear
2:58 PM 51.4 °F - 14.9 °F 23% 30.11 in 10.0 mi SSW 3.5 mph - N/A   Clear
3:58 PM 50.0 °F - 16.2 °F 26% 30.13 in 10.0 mi South 3.5 mph - N/A   Clear
4:58 PM 40.1 °F 38.0 °F 17.1 °F 39% 30.20 in 10.0 mi West 3.5 mph - N/A   Clear
5:58 PM 32.2 °F 25.8 °F 17.4 °F 55% 30.24 in 10.0 mi NNE 6.9 mph - N/A   Clear
6:58 PM 32.7 °F 27.3 °F 16.2 °F 51% 30.25 in 10.0 mi Variable 5.8 mph - N/A   Clear
7:58 PM 48.9 °F - 1.0 °F 14% 30.16 in 10.0 mi WNW 10.4 mph 32.2 mph N/A   Clear
8:29 PM 46.4 °F 39.0 °F 6.8 °F 20% 30.14 in 10.0 mi WNW 19.6 mph 33.4 mph N/A   Clear
8:55 PM 48.2 °F - 5.0 °F 17% 30.14 in 10.0 mi NW 18.4 mph 38.0 mph N/A   Clear
8:58 PM 47.3 °F - 4.1 °F 17% 30.12 in 10.0 mi North 13.8 mph 38.0 mph N/A   Clear
9:05 PM 48.2 °F - 3.2 °F 16% 30.15 in 10.0 mi North 11.5 mph 25.3 mph N/A   Clear
9:24 PM 48.2 °F - 5.0 °F 17% 30.15 in 10.0 mi NW 20.7 mph 32.2 mph N/A   Clear
9:34 PM 48.2 °F - 5.0 °F 17% 30.16 in 10.0 mi WNW 13.8 mph 25.3 mph N/A   Clear
9:58 PM 46.8 °F - 6.6 °F 19% 30.09 in 10.0 mi West 24.2 mph 31.1 mph N/A   Clear
10:58 PM 44.2 °F 39.7 °F 7.2 °F 22% 30.10 in 10.0 mi North 8.1 mph - N/A   Clear
11:20 PM 46.4 °F 39.8 °F 8.6 °F 22% 30.14 in 10.0 mi WNW 16.1 mph 31.1 mph N/A   Clear
11:32 PM 46.4 °F 40.4 °F 6.8 °F 20% 30.15 in 10.0 mi North 13.8 mph 27.6 mph N/A   Clear
11:45 PM 46.4 °F 38.7 °F 8.6 °F 22% 30.14 in 10.0 mi NW 20.7 mph 27.6 mph N/A   Clear
11:49 PM 46.4 °F 40.7 °F 8.6 °F 22% 30.15 in 10.0 mi North 12.7 mph 29.9 mph N/A   Clear
11:53 PM 46.4 °F 39.0 °F 8.6 °F 22% 30.15 in 10.0 mi NW 19.6 mph 29.9 mph N/A   Clear
11:58 PM 46.2 °F 38.3 °F 8.2 °F 21% 30.06 in 10.0 mi WNW 21.9 mph 29.9 mph N/A   Clear